N4360F KCRQ-

Flight info

Callsign N4360F
Flight time N/A
Altitude VFR
Route
Aircraft P28A/L-VGD/C

Departure

Time 2026-05-03 21:30
Airport McClellan-Palomar Airport (KCRQ)

Arrival

Time N/A
Airport -
Time Latitude Longitude Altitude Speed Heading
2026-05-03 21:27 33.12857 -117.27222 321 ft 0 kts 347°
2026-05-03 21:28 33.12858 -117.27223 321 ft 0 kts 347°
2026-05-03 21:28 33.12891 -117.27233 321 ft 9 kts 343°
2026-05-03 21:29 33.12940 -117.27277 322 ft 9 kts 269°
2026-05-03 21:29 33.12919 -117.27433 322 ft 42 kts 259°
2026-05-03 21:29 33.12822 -117.27957 369 ft 80 kts 260°
2026-05-03 21:29 33.12697 -117.28646 564 ft 88 kts 265°
2026-05-03 21:30 33.12604 -117.29356 772 ft 83 kts 263°
2026-05-03 21:30 33.12660 -117.30003 1051 ft 78 kts 290°
2026-05-03 21:30 33.13018 -117.30514 1256 ft 88 kts 323°
2026-05-03 21:30 33.13639 -117.30606 1459 ft 98 kts 13°
2026-05-03 21:31 33.14280 -117.30170 1623 ft 112 kts 27°
2026-05-03 21:31 33.15033 -117.29818 1635 ft 122 kts
2026-05-03 21:31 33.15904 -117.29732 1653 ft 126 kts 358°
2026-05-03 21:31 33.16757 -117.29685 1797 ft 122 kts 358°
2026-05-03 21:32 33.17578 -117.29588 1906 ft 118 kts
2026-05-03 21:32 33.18373 -117.29357 2116 ft 114 kts
2026-05-03 21:32 33.19130 -117.29163 2378 ft 110 kts
2026-05-03 21:32 33.19866 -117.28996 2641 ft 106 kts
2026-05-03 21:33 33.20587 -117.28772 2834 ft 106 kts 10°
2026-05-03 21:33 33.21296 -117.28581 3083 ft 104 kts
2026-05-03 21:33 33.21994 -117.28393 3361 ft 100 kts 11°
2026-05-03 21:33 33.22646 -117.28183 3639 ft 96 kts 13°
2026-05-03 21:34 33.23304 -117.27975 3846 ft 100 kts 13°
2026-05-03 21:34 33.23967 -117.27755 4102 ft 99 kts 14°
2026-05-03 21:34 33.24634 -117.27525 4318 ft 101 kts 15°
2026-05-03 21:34 33.25272 -117.27275 4595 ft 98 kts 18°
2026-05-03 21:35 33.25991 -117.27046 4612 ft 122 kts 12°
2026-05-03 21:35 33.26860 -117.26877 4630 ft 126 kts
2026-05-03 21:35 33.27722 -117.26703 4499 ft 129 kts 12°
2026-05-03 21:35 33.28577 -117.26459 4502 ft 121 kts 13°
2026-05-03 21:36 33.29339 -117.26238 4500 ft 107 kts 13°
2026-05-03 21:36 33.30056 -117.26037 4477 ft 104 kts 11°
2026-05-03 21:36 33.30763 -117.25854 4437 ft 105 kts 10°
2026-05-03 21:36 33.31505 -117.25713 4374 ft 109 kts
2026-05-03 21:37 33.32243 -117.25585 4391 ft 106 kts
2026-05-03 21:37 33.32959 -117.25459 4420 ft 103 kts
2026-05-03 21:37 33.33671 -117.25399 4439 ft 101 kts
2026-05-03 21:37 33.34361 -117.25387 4470 ft 100 kts 359°
2026-05-03 21:38 33.35056 -117.25387 4486 ft 101 kts 358°
2026-05-03 21:38 33.35763 -117.25391 4489 ft 102 kts 359°
2026-05-03 21:38 33.36478 -117.25384 4496 ft 103 kts 360°
2026-05-03 21:38 33.37200 -117.25346 4486 ft 104 kts
2026-05-03 21:39 33.37912 -117.25285 4502 ft 102 kts
2026-05-03 21:39 33.38621 -117.25206 4510 ft 102 kts
2026-05-03 21:39 33.39326 -117.25117 4518 ft 103 kts
2026-05-03 21:39 33.40033 -117.25019 4518 ft 102 kts
2026-05-03 21:40 33.40739 -117.24901 4519 ft 103 kts
2026-05-03 21:40 33.40968 -117.24859 4527 ft 102 kts